This demonstration page uses our WeatherBlox Daily Observations layout. Learn more.

36.17497, -115.13722

Hourly Observations for June 8, 2018

Temp ( °F °C ) Dew Point ( °F °C ) Humidity (%) Winds ( mph kmh ) Pressure ( in mb ) Visibility ( mi km ) Precip ( " mm )
12:53 am 00:53 Clear 79 26.1 19 -7.2 10 10 N 9 15 29.8 1009 10 16.09344 0 0
1:53 am 01:53 Clear 78 25.6 18 -7.8 10 10 NW 8 13 29.8 1009 10 16.09344 0 0
2:53 am 02:53 Clear 77 25 19 -7.2 11 11 Calm 29.8 1009 10 16.09344 0 0
3:53 am 03:53 Clear 73 22.8 22 -5.6 15 15 NW 9 15 29.83 1010 10 16.09344 0 0
4:53 am 04:53 Clear 72 22.2 23 -5 16 16 NNW 7 11 29.83 1010 10 16.09344 0 0
5:53 am 05:53 Sunny 72 22.2 26 -3.3 18 18 Calm 29.85 1011 10 16.09344 0 0
6:53 am 06:53 Sunny 76 24.4 25 -3.9 15 15 W 5 7 29.88 1012 10 16.09344 0 0
7:53 am 07:53 Sunny 81 27.2 24 -4.4 12 12 NNW 7 11 29.88 1012 10 16.09344 0 0
8:53 am 08:53 Sunny 85 29.4 19 -7.2 9 9 N 3 6 29.91 1013 10 16.09344 0 0
9:53 am 09:53 Sunny 88 31.1 17 -8.3 7 7 ENE 7 11 29.88 1012 10 16.09344 0 0
10:53 am 10:53 Sunny 90 32.2 17 -8.3 7 7 E 5 7 29.88 1012 10 16.09344 0 0
11:53 am 11:53 Sunny 93 33.9 16 -8.9 6 6 N 6 9 29.88 1012 10 16.09344 0 0
12:53 pm 12:53 Sunny 95 35 14 -10 5 5 SSW 6 9 29.85 1011 10 16.09344 0 0
1:53 pm 13:53 Sunny 96 35.6 13 -10.6 5 5 N 6 9 29.85 1011 10 16.09344 0 0
2:53 pm 14:53 Sunny 98 36.7 13 -10.6 4 4 SSE 10 17 29.83 1010 10 16.09344 0 0
3:53 pm 15:53 Sunny 99 37.2 13 -10.6 4 4 S 14 22 29.8 1009 10 16.09344 0 0
4:53 pm 16:53 Sunny 98 36.7 14 -10 4 4 S 12 19 29.77 1008 10 16.09344 0 0
5:53 pm 17:53 Sunny 99 37.2 16 -8.9 5 5 S 8 13 29.77 1008 10 16.09344 0 0
6:53 pm 18:53 Sunny 98 36.7 17 -8.3 5 5 ESE 12 19 29.74 1007 10 16.09344 0 0
7:53 pm 19:53 Sunny 95 35 21 -6.1 7 7 ESE 13 20 29.74 1007 10 16.09344 0 0
8:53 pm 20:53 Clear 94 34.4 18 -7.8 6 6 W 13 20 29.74 1007 10 16.09344 0 0
9:53 pm 21:53 Clear 91 32.8 17 -8.3 6 6 SW 10 17 29.77 1008 10 16.09344 0 0
10:53 pm 22:53 Clear 89 31.7 18 -7.8 7 7 SSW 9 15 29.77 1008 10 16.09344 0 0
11:53 pm 23:53 Clear 84 28.9 19 -7.2 9 9 S 8 13 29.77 1008 10 16.09344 0 0

Powered by AerisWeather